Regional Weather Roundup
Issued by NWS

Home | Current Version | Previous Version | Text Only | Print | Product List | Glossary On
Versions: 1 2 3 4 5 6 7 8 9 10 11 12 13 14 15 16 17 18 19 20 21 22 23 24 25 26 27
000
ASUS42 KKEY 260710
RWRKEY

FLORIDA REGIONAL WEATHER ROUNDUP FOR THE FLORIDA KEYS
NATIONAL WEATHER SERVICE KEY WEST FLORIDA
300 AM EDT WED JUL 26 2017

...SOUTH FLORIDA AND THE KEYS...

CITY           SKY/WX    TMP DP  RH WIND       PRES   REMARKS
FORT MYERS     MOCLDY    81  79  94 SE3       30.06F HX  90
SW REGIONAL AP MOCLDY    79  76  90 SE5       30.07F
NAPLES         CLOUDY    82  78  88 SE3       30.07S HX  91
MIAMI          PTCLDY    84  77  79 E8        30.08F HX  94
WEST KENDALL   PTCLDY    80  76  87 E3        30.08F
HOMESTEAD      PTCLDY    80  80  99 E3        30.07F HX  90
MARATHON       CLEAR     85  78  80 E7        30.07F HX  96
BOCA CHICA NAS PTCLDY    85  79  82 E9        30.07F HX  98
KEY WEST INTL  PTCLDY    85  78  80 E7        30.08S HX  96

...INTERNATIONAL WEATHER...

CITY           SKY/WX    TMP DP  RH WIND       PRES   REMARKS
NASSAU BAHAMAS PTCLDY    84  70  61 E3        30.10F
CANCUN MEXICO  MOCLDY    82  82 100 CALM      30.04F HX  97
COZUMEL MEXICO PTCLDY    82  79  89 CALM      30.02F HX  93

ADJACENT COASTAL WATERS...

STATION/POSITION TIME  SKY/WX   TEMP    WIND        PRES    WAVE
                                AIR SEA DIR/SP/G            HT/PER
                 (UTC)          (F)     (DEG/KT/KT) (MB)    (FT/S)
PULASKI SHOAL LI 0700            86      80/  9/ 10 1018.5F
SAND KEY         0650            85                 1019.0F
LONG KEY         NOT AVBL
MOLASSES REEF    NOT AVBL
FOWEY ROCKS      0700            85 86   60/  9/  9 1019.2F
Buoy 42097       0630               87                N/A     1/ 3

$$




USA.gov is the U.S. government's official web portal to all federal, state and local government web resources and services.